COSMOS 886 DEB, 9819

Orbit data source: Space-Track

COSMOS 886 DEB, 9819 is space debris in LEO originally from a launch on Mon, 27 Dec 1976 UTC launched from the Tyuratam Missile And Space Complex (TTMTR). Debris objects in space refer to the collection of defunct objects orbiting the Earth. Examples of debris include non-operational satellites, rocket bodies, and fragments generated from explosions, collisions, or faulty payload assembly.

Loading next visibility...
Identifier
9819, 1976-126AF
Orbit
LEO
Country
Flag of CISCIS
Related business
Manufacturer
Unknown
Mission
Spacecraft
Bus & Motor
Unknown
Mass
Unknown
Launch date (UTC)
1976-12-27 (49 years ago)
Launch vehicle
Unknown
Launch site
Tyuratam Missile And Space Complex (TTMTR)
Object type
Payload
Rocket body
Debris
Shape & HBR
Unknown shape, 0.1 m
Radar Cross Section
Small (<0.1 m²)

Expand to show TLE details & history
Last TLE update: 20 hours ago

TLE from 20 hours ago
0 COSMOS 886 DEB
1 09819U 76126AF  26129.83273268  .00006550  00000-0  92263-3 0  9999
2 09819  65.8851 209.4794 0419476 224.6845 131.9735 14.32037318430085
Epoch: 2026-05-09T19:59Z
TLE epoch observation values (Epoch: 2026-05-09T19:59:08.103Z)
Latitude
0.00001°
Longitude
42.05114°
Altitude
994.625 km
Speed
7.248 km/s
True Right ascension
13h 57m 55s
True Declination
0° 00' 00"
Sunlit
Object was in full shadow at epoch
Visualization orbit readout
Latitude
Unknown
Longitude
Unknown
Altitude
Unknown
Speed
Unknown
Apparent Right ascension
Unknown
Apparent Declination
Unknown
Sunlit
N/A
Visualization observer readout
Local Sidereal Time
00:11:11
Azimuth
Unknown
Elevation
Unknown
Doppler factor
Unknown
Orbital elements
Apogee altitude
1,083.804 km
Perigee altitude
482.986 km
Semi-major axis
7,161.532 km
Eccentricity
0.04195
Inclination
65.8851°
RAAN
209.4794°
Arg. of periapsis
224.6845°
True anomaly
135.42386°
Mean anomaly
131.9735°
Eccentric anomaly
133.71078°
Mean motion
3.58125 °/min
Orbital period
100.52 mins
BSTAR
0.00092263
Loading maneuver chart data...
Computing Atmospheric mass density...
Loading historical data...
Loading historical data...
Loading historical data...
Loading historical data...
Loading historical data...
Loading historical data...
Loading historical data...

Documentation

Showing up to 5 results
|